Terminal Aerodrome Forecast
Issued by NWS

Home | Current Version | Previous Version | Text Only | Print | Product List | Glossary On
Versions: 1 2 3 4 5 6 7 8 9 10 11 12 13 14 15 16 17
000
FTUS43 KFGF 292200 AAA
TAFTVF
TAF AMD
KTVF 292208Z 2922/3018 36013G20KT P6SM VCSH BKN020
     FM300100 35013KT P6SM BKN025
     FM301000 35007KT P6SM SCT050
      AMD LTD TO CLD VIS AND WIND=

USA.gov is the U.S. government's official web portal to all federal, state and local government web resources and services.